sat.trackr.live / text

‹ back to catalog

IRIDIUM 110

NORAD 43481 · 2018-047F

PAYLOAD ACTIVE UNKNOWN

§ Identity

Operator
Country
US
Launch date
2018-05-22
Launch site
AFWTR
Launch vehicle
Mass (kg)
RCS (m²)

Purposes: comms

External: N2YO · Heavens-Above · Gunter

§ Orbital elements

Epoch: 2026-09-12T04:27:18.366336Z

Period
100.40 min
Inclination
86.3937°
Eccentricity
0.0002318
Mean motion
14.34217599 rev/d
Perigee alt
776.0 km
Apogee alt
779.3 km
Semi-major
7,155.8 km
B*
1.2684e-5
RAAN
52.0250°
Arg perigee
97.1629°
Mean anomaly
262.9830°
Rev number
43,494

§ Raw data

IRIDIUM 1101 43481U 18047F   26255.18562924  .00000055  00000+0  12684-4 0  99912 43481  86.3937  52.0250 0002318  97.1629 262.9830 14.34217599434949

JSON: /api/v1/satellites/43481 · /tle

For live sub-satellite position, see the globe view (requires WebGL).

§ Visibility from observer

Set your observer location to see the next 7 days of passes ≥ 10°. The values pass through the URL so the page stays shareable.

No JS? Fill the form by hand. The geolocation button needs JavaScript.